Location: Hoppensen
(51.7897°N, 9.7662°E)
Time: 06:39:21
(UTC+00:00)

Daily predictions for brighter satellites

Satellite Brightness Start Highest point End
(mag) Time Altitude Azimuth Time Altitude Azimuth Time Altitude Azimuth
BREEZE-M DEB (TANK) 4.4 20:15:52 10° W 20:19:51 74° S 20:37:25 10° E
SL-4 R/B 1.9 20:26:42 10° W 20:30:32 89° S 20:34:37 10° E
COSMOS 2406 4.5 20:25:42 10° SW 20:31:15 48° NW 20:36:49 10° NNE
Cosmos 1850 Rocket 4.1 20:27:35 10° S 20:32:42 57° ESE 20:37:48 10° NNE
Resurs 01 Rocket 4.3 20:30:56 10° SW 20:33:32 15° W 20:36:09 10° NW
Cosmos 2315 Rocket 4.1 20:27:07 10° N 20:33:33 82° E 20:39:57 10° SSE
SJ 16-02 2.1 20:35:16 10° SSE 20:39:07 32° ESE 20:42:59 10° NE
SPOT 5 3.9 20:35:21 10° SSW 20:39:22 38° W 20:43:32 10° NNW
SeaSat 1 2.9 20:35:39 10° SSE 20:40:29 59° WSW 20:45:22 10° NW
Cosmos 968 Rocket 3.8 20:36:58 10° S 20:41:54 49° ESE 20:46:55 10° NNE
Cosmos 2219 Rocket 2.4 20:39:12 10° NNW 20:44:53 70° ENE 20:50:33 10° SE
Cosmos 1707 Rocket 3.6 20:42:22 10° S 20:46:46 66° E 20:51:11 10° NNE
Cosmos 1400 Rocket 3.2 20:44:45 10° SSW 20:48:36 63° WNW 20:52:25 10° N
COSMOS 2428 3.5 20:45:08 10° NNW 20:50:35 44° NE 20:56:01 10° ESE
ATLAS CENTAUR R/B 0.9 20:48:32 10° SSW 20:52:01 65° SE 20:55:37 10° NE
SPOT 3 Rocket 3.7 20:47:32 10° S 20:52:40 74° WSW 20:57:52 10° NNW
Cosmos 1741 Rocket 4.0 20:48:32 10° SSW 20:53:48 79° ESE 20:59:08 10° NNE
Cosmos 1814 Rocket 4.1 20:49:04 10° NNW 20:54:25 89° SW 20:59:41 10° SSE
Meteor 1-21 4.3 20:50:36 10° S 20:56:21 72° E 21:02:11 10° NNE
USA 234 3.3 20:50:04 10° ENE 20:56:31 57° SE 21:02:56 10° SW
Timation 1 Rocket 4.5 20:54:58 10° SW 21:00:57 82° WNW 21:06:58 10° NNE
Landsat 4 4.2 20:58:36 10° S 21:01:56 47° W 21:05:17 10° NNW
Cosmos 1356 Rocket 3.5 20:57:56 10° SSW 21:02:08 84° WNW 21:06:22 10° NNE
Cosmos 1733 Rocket 3.4 20:59:05 10° NNW 21:03:28 64° W 21:07:50 10° S
Cosmos 1953 2.6 21:00:30 10° N 21:04:15 51° ENE 21:07:31 13° SSE
Okean 1-7 3.5 21:01:50 10° SSE 21:05:53 44° E 21:10:00 10° NNE
Okean 2 3.9 21:02:36 11° SSE 21:06:11 41° E 21:10:00 10° NNE
BlueWalker 3 3.3 21:04:48 10° S 21:07:28 19° SE 21:10:07 10° E
Terra 2.9 21:03:45 10° SSW 21:08:10 40° W 21:12:38 10° NNW
Cosmos 1315 Rocket 3.2 21:06:12 11° S 21:09:51 46° E 21:13:42 10° NNE
Cosmos 2360 Rocket 2.9 21:05:05 10° NW 21:10:30 47° WSW 21:15:54 10° S
ARIANE 5 R/B 3.5 21:07:44 11° SE 21:11:30 37° ENE 21:15:31 10° N
Meteor 2-20 Rocket 4.5 21:06:46 10° N 21:13:06 84° E 21:18:52 11° SSE
ERS-1 Rocket 4.4 21:10:47 10° SSW 21:15:17 33° W 21:19:49 10° NNW
Cosmos 1455 2.1 21:14:37 10° N 21:18:08 64° ENE 21:20:53 15° SSE
Cosmos 1908 Rocket 3.6 21:14:45 10° N 21:19:05 67° ENE 21:22:42 14° SSE
Cosmos 2208 Rocket 4.4 21:15:25 10° NNW 21:20:33 55° ENE 21:25:05 13° SE
SL-27 R/B 2.9 21:18:09 10° SW 21:20:50 46° WNW 21:23:34 10° NNE
Cosmos 1782 Rocket 4.3 21:17:56 10° N 21:22:02 40° ENE 21:25:25 14° SE
GP-B 3.7 21:18:38 10° NNE 21:22:52 42° E 21:26:13 15° SSE
SL-16 R/B 4.2 21:19:14 10° NW 21:23:21 21° W 21:27:26 10° SSW
Nadezhda 1 Rocket 4.3 21:18:54 10° N 21:25:08 56° ENE 21:30:24 14° SSE
BREEZE-M DEB (TANK) 4.1 21:22:34 10° WSW 21:27:10 71° SSE 21:46:50 10° E
Cosmos 2333 Rocket 3.3 21:24:43 10° NW 21:29:58 38° WSW 21:35:14 10° S
Aureole 3 4.0 21:26:17 10° SSW 21:30:26 71° WNW 21:35:41 10° N
Cosmos 1346 Rocket 4.5 21:28:40 10° NW 21:31:57 27° W 21:35:13 10° SSW
Cosmos 2228 Rocket 4.5 21:33:18 10° SW 21:37:35 39° WNW 21:41:54 10° N
Cosmos 1300 Rocket 4.1 21:33:28 10° N 21:37:39 47° ENE 21:40:48 16° SE
SL-16 R/B 4.3 21:35:45 10° NNW 21:40:09 22° NE 21:44:31 10° E
Landsat 5 3.8 21:38:27 10° N 21:42:26 63° WNW 21:46:32 10° SSW
COSMOS 2455 3.7 21:38:30 15° SSE 21:42:35 31° ESE 21:47:46 10° NE
ATLAS 2AS CENTAUR R/B 3.6 21:36:37 10° NW 21:42:39 35° WSW 21:47:58 12° S
Cosmos 1833 4.5 21:39:47 10° SW 21:45:24 73° WNW 21:51:03 10° NNE
Cosmos 2237 Rocket 2.9 21:41:25 10° NNW 21:46:56 47° NE 21:52:14 11° SE
Meteor 1-4 Rocket 3.2 21:44:54 10° SW 21:47:45 40° WNW 21:50:39 10° N
USA 281 3.3 21:43:40 15° SSE 21:49:19 89° NE 21:55:57 10° NNW
Cosmos 1242 Rocket 1.7 21:47:48 22° S 21:49:25 74° ESE 21:52:09 10° NNE
Spot 4 4.4 21:47:55 15° SE 21:51:38 48° ENE 21:56:16 10° N
Cosmos 2322 3.8 21:46:20 10° NW 21:52:00 69° WSW 21:56:21 17° SSE
Cosmos 2227 Rocket 4.1 21:53:23 11° SE 21:55:57 14° E 21:58:45 10° ENE
NOSS 0 Rocket 4.0 21:49:48 10° NNW 21:56:05 82° ENE 22:01:14 16° SE
Cosmos 1980 4.1 21:54:48 10° NNW 22:00:26 60° NE 22:05:19 14° SE
ALOS 2 3.5 21:57:54 15° SE 22:01:09 41° ENE 22:05:16 10° N
H-2A R/B 2.7 21:58:24 19° SSE 22:01:23 62° ENE 22:05:36 10° N
Cosmos 1703 Rocket 3.7 21:59:28 14° SSW 22:03:21 77° WNW 22:07:49 10° N
Cosmos 2322 Rocket 4.4 22:01:26 10° WNW 22:04:44 16° W 22:08:01 10° SW
SL-4 R/B 2.1 22:05:21 10° W 22:09:13 54° SSW 22:12:21 16° SE
Cosmos 2297 Rocket 3.0 22:11:53 19° SSE 22:15:10 34° ESE 22:20:13 10° NE
SJ 16-02 2.9 22:13:28 10° WSW 22:17:26 34° WNW 22:21:26 10° N
Cosmos 1709 Rocket 4.1 22:14:43 18° S 22:19:34 67° E 22:25:52 10° NNE
Cosmos 158 Rocket 4.3 22:17:43 10° NNW 22:22:55 56° WSW 22:26:23 20° S
BREEZE-M DEB (TANK) 3.6 22:21:56 10° W 22:25:04 70° S 22:34:30 10° E
Cosmos 2242 Rocket 3.7 22:23:28 21° S 22:26:28 74° E 22:31:03 10° NNE
MINOTAUR 4 R/B 3.6 22:24:31 10° N 22:27:26 71° WNW 22:28:58 25° SSW
Cosmos 2219 Rocket 3.8 22:23:51 10° NW 22:28:20 24° WSW 22:32:21 12° SSW
Cosmos 1408 2.0 22:27:18 28° SSW 22:28:43 83° W 22:31:44 10° N
ATLAS CENTAUR R/B 3.6 22:27:02 10° W 22:29:59 24° NNW 22:33:02 10° NNE
EXPRESS MD2 2.6 22:29:17 10° W 22:30:57 35° SW 22:30:57 35° SW
CZ-4C R/B 2.2 22:28:53 20° S 22:31:53 48° ESE 22:37:20 10° NE
COSMOS 2428 3.4 22:29:31 10° NW 22:34:51 42° WSW 22:38:32 19° S
CZ-2C R/B 4.3 22:33:18 10° N 22:37:36 52° WNW 22:41:29 12° SW
NOSS 8 (E) 4.2 22:34:57 13° SW 22:38:18 79° SE 22:41:22 10° NE
CENTAUR R/B 3.7 22:37:03 17° SE 22:39:42 24° ESE 22:44:52 10° ENE
USA 234 3.6 22:33:11 10° ENE 22:39:43 72° NNW 22:46:13 10° WSW
BREEZE-M DEB (TANK) 3.3 22:27:37 10° W 22:39:52 72° S 22:43:24 10° ESE
Cosmos 405 Rocket 2.7 22:40:18 10° N 22:44:04 76° ENE 22:46:03 26° SSE
Meteor 2-5 Rocket 3.9 22:40:27 20° S 22:44:34 70° E 22:50:22 10° NNE
BlueWalker 3 1.7 22:41:25 10° WSW 22:45:08 67° SSE 22:48:52 10° ENE
Cosmos 2263 Rocket 4.2 22:43:50 10° SE 22:46:25 13° E 22:49:01 10° ENE
ARIANE 5 R/B 3.9 22:45:12 16° SSW 22:47:58 29° W 22:51:47 10° NNW
Cosmos 773 Rocket 4.2 22:44:31 10° NNW 22:49:35 61° WSW 22:52:47 23° S
Cosmos 1174 4.1 22:45:08 10° NW 22:50:19 82° SW 22:52:58 22° SSE
Okean 1 Rocket 3.9 22:48:24 10° N 22:52:35 43° ENE 22:55:26 18° SE
Cosmos 371 Rocket 3.3 22:53:42 18° SSW 22:57:14 86° WNW 23:02:06 10° NNE
Cosmos 2084 Rocket 3.9 22:57:00 26° S 22:58:52 41° SE 23:02:47 10° ENE
PSLV R/B 3.7 23:01:29 10° NNE 23:05:40 59° E 23:07:53 26° S
Cosmos 1892 2.9 23:05:53 29° SSE 23:07:21 51° E 23:10:48 10° NNE
H-2A R/B 2.7 23:04:49 10° NNE 23:08:53 42° E 23:10:59 24° SSE
Cosmos 1777 Rocket 4.0 23:05:53 21° SSW 23:09:28 77° ESE 23:14:46 10° NNE
Cosmos 1538 Rocket 4.4 23:05:18 10° NNW 23:10:28 61° ENE 23:14:45 15° SE
Cosmos 1503 Rocket 4.0 23:07:09 19° SSW 23:11:03 89° WNW 23:16:23 10° NNE
Cosmos 1263 4.4 23:07:40 10° N 23:11:19 76° E 23:12:40 32° SSE
Cosmos 1703 3.9 23:12:38 20° SW 23:14:51 44° WNW 23:18:24 10° N
Cosmos 2181 Rocket 4.1 23:16:35 10° NNW 23:22:43 66° W 23:26:52 21° S
SL-16 R/B 2.3 23:19:30 10° NNW 23:25:14 76° ENE 23:30:12 14° SE
NOSS 8 (A) 4.4 23:22:28 10° NW 23:25:22 52° SW 23:26:36 32° S
Cosmos 1455 Rocket 3.9 23:23:48 10° N 23:28:04 44° ENE 23:31:18 16° SE
COSMOS 2455 3.2 23:22:09 10° SW 23:28:09 66° NW 23:34:11 10° NE
Cosmos 1825 1.8 23:26:52 32° S 23:28:21 82° E 23:31:48 10° NNE
Cosmos 2151 Rocket 3.9 23:24:20 10° NNW 23:28:38 54° W 23:31:01 24° SSW
Cosmos 1328 4.1 23:26:46 26° SSE 23:28:40 52° E 23:32:28 10° NNE
GEOS 3 Rocket 4.5 23:24:30 10° ENE 23:29:09 33° ESE 23:31:36 22° SSE
NOSS 3-2 (A) 4.2 23:27:46 20° SSE 23:30:21 30° ESE 23:35:33 10° ENE
Cosmos 2237 Rocket 2.9 23:25:42 10° NW 23:30:54 38° WSW 23:34:01 21° SSW
BREEZE-M DEB (TANK) 3.5 23:29:09 16° WSW 23:31:22 55° SSE 23:37:57 10° E
Okean 2 Rocket 3.5 23:30:33 10° NNW 23:34:54 52° W 23:37:23 24° SSW
Cosmos 2074 Rocket 4.0 23:30:40 21° S 23:34:58 84° E 23:41:13 10° NNE
ALOS 2 4.0 23:35:18 18° SW 23:37:36 27° W 23:41:22 10° NW
Cosmos 1674 Rocket 3.6 23:35:17 24° SSW 23:37:52 71° WNW 23:42:13 10° N
Cosmos 1943 4.5 23:32:39 10° NNW 23:37:55 39° NE 23:43:09 10° ESE
Cosmos 1378 Rocket 3.8 23:35:17 22° SSW 23:37:57 60° WNW 23:42:20 10° N
Cosmos 2227 Rocket 2.2 23:35:09 21° SSW 23:39:00 74° ESE 23:44:41 10° NNE
Cosmos 1025 Rocket 3.4 23:37:38 24° SSE 23:40:03 55° E 23:44:17 10° NNE
SL-4 R/B 3.6 23:44:37 10° W 23:47:03 18° SW 23:47:03 18° SW
Cosmos 1898 Rocket 4.4 23:47:23 19° SSE 23:50:28 35° ESE 23:55:09 10° NE
Cosmos 332 Rocket 3.9 23:48:04 20° SSW 23:51:27 75° WNW 23:56:23 10° NNE
Cosmos 1354 Rocket 4.5 23:49:34 15° SW 23:53:53 57° WNW 23:59:07 10° NNE
